Change the Weather History Date:

Saturday, July 27, 2013

  Actual Average Record
Temperature  
Mean Temperature 71 °F 69 °F  
Max Temperature 83 °F 88 °F 97 °F (1964)
Min Temperature 58 °F 51 °F 39 °F (2005)
Degree Days  
Heating Degree Days 0 0  
Month to date heating degree days 0 25  
Since 1 June heating degree days 100 178  
Since 1 July heating degree days 0 25  
Cooling Degree Days 6 5  
Month to date cooling degree days 200 108  
Year to date cooling degree days 273 140  
Since 1 June cooling degree days 269 138  
Growing Degree Days 21 (Base 50)    
Moisture  
Dew Point 52 °F    
Average Humidity 59    
Maximum Humidity 90    
Minimum Humidity 28    
Precipitation  
Precipitation 0.16 in 0.02 in 0.31 in (1962)
Month to date precipitation 0.46 0.44  
Year to date precipitation 2.40 6.38  
Sea Level Pressure  
Sea Level Pressure 29.98 in    
Wind  
Wind Speed 6 mph (NE)    
Max Wind Speed 26 mph    
Max Gust Speed 35 mph    
Visibility 10 miles    
Events Rain    
T = Trace of Precipitation, MM = Missing Value Source: NWS Daily Summary

Daily Weather History Graph

Daily Weather History Graph

Search for Another Location

Airport or City:

Trip Planner

Search our weather history database for the weather conditions in past years. The results will help you decide how hot, cold, wet, or windy it might be!

Date:

Astronomy

Jul. 27, 2013 Rise Set
Actual Time 6:12 AM MDT 8:56 PM MDT
Civil Twilight 5:39 AM MDT 9:29 PM MDT
Nautical Twilight 4:57 AM MDT 10:10 PM MDT
Astronomical Twilight 4:09 AM MDT 10:58 PM MDT
Moon 11:32 PM MDT (7/27) 12:09 PM MDT (7/27)
Length of Visible Light 15h 49m
Length of Day
14h 43m
Waning Gibbous, 70% of the Moon is Illuminated
Jul 27
Waning Gibbous
Jul 29
Last Quarter
Aug 6
New
Aug 14
First Quarter
Aug 20
Full

Hourly Weather History & Observations

Time (MDT) Temp. Dew Point Humidity Pressure Visibility Wind Dir Wind Speed Gust Speed Precip Events Conditions
12:53 AM 64.9 °F 48.9 °F 56% 29.95 in 10.0 mi East 3.5 mph - N/A   Clear
1:53 AM 66.0 °F 48.0 °F 52% 29.95 in 10.0 mi North 5.8 mph - N/A   Clear
2:53 AM 69.1 °F 46.9 °F 45% 29.94 in 10.0 mi Variable 3.5 mph - N/A   Scattered Clouds
3:53 AM 63.0 °F 46.9 °F 56% 29.94 in 10.0 mi NNW 8.1 mph - N/A   Clear
4:53 AM 66.0 °F 46.0 °F 48% 29.93 in 10.0 mi Calm Calm - N/A   Clear
5:53 AM 63.0 °F 48.0 °F 58% 29.95 in 10.0 mi Variable 5.8 mph 16.1 mph N/A   Clear
6:53 AM 66.0 °F 46.0 °F 48% 29.98 in 10.0 mi SE 6.9 mph - N/A   Clear
7:53 AM 68.0 °F 46.0 °F 45% 29.99 in 10.0 mi SSE 6.9 mph - 0.00 in   Overcast
8:53 AM 63.0 °F 52.0 °F 67% 30.01 in 10.0 mi West 6.9 mph - 0.00 in   Overcast
9:53 AM 68.0 °F 53.1 °F 59% 30.01 in 10.0 mi Calm Calm - 0.00 in Rain Light Rain
10:53 AM 70.0 °F 52.0 °F 53% 30.04 in 10.0 mi Calm Calm - 0.00 in Rain Light Rain
11:53 AM 69.1 °F 55.0 °F 61% 30.05 in 10.0 mi Calm Calm - 0.00 in Rain Light Rain
12:53 PM 71.1 °F 53.1 °F 53% 30.04 in 10.0 mi ESE 9.2 mph - 0.00 in   Overcast
1:53 PM 77.0 °F 48.9 °F 37% 29.99 in 10.0 mi ESE 9.2 mph - N/A   Partly Cloudy
2:53 PM 80.1 °F 46.0 °F 30% 29.94 in 10.0 mi ESE 9.2 mph - N/A   Scattered Clouds
3:53 PM 82.9 °F 46.0 °F 27% 29.91 in 10.0 mi SSE 15.0 mph 21.9 mph N/A   Mostly Cloudy
4:24 PM 73.4 °F 51.8 °F 47% 30.08 in 10.0 mi North 17.3 mph 32.2 mph N/A   Overcast
4:41 PM 62.6 °F 55.4 °F 77% 30.10 in 9.0 mi NNW 21.9 mph 33.4 mph 0.01 in Rain Light Rain
4:53 PM 61.0 °F 55.0 °F 81% 30.00 in 10.0 mi North 23.0 mph 34.5 mph 0.01 in Rain Light Rain
5:32 PM 60.8 °F 55.4 °F 82% 30.13 in 3.0 mi NNE 12.7 mph 25.3 mph 0.06 in Rain Light Rain
5:53 PM 62.1 °F 55.9 °F 80% 30.00 in 6.0 mi ESE 12.7 mph - 0.12 in Rain Light Rain
6:53 PM 63.0 °F 57.0 °F 81% 29.94 in 10.0 mi NNE 6.9 mph - 0.03 in Rain Light Rain
7:53 PM 64.0 °F 57.0 °F 78% 29.93 in 10.0 mi Calm Calm - 0.00 in   Partly Cloudy
8:53 PM 64.0 °F 57.9 °F 80% 29.92 in 10.0 mi Calm Calm - N/A   Scattered Clouds
9:53 PM 61.0 °F 57.0 °F 87% 29.94 in 10.0 mi North 4.6 mph - N/A   Clear
10:53 PM 60.1 °F 55.0 °F 83% 29.96 in 10.0 mi NNW 9.2 mph - N/A   Scattered Clouds
11:53 PM 62.1 °F 55.0 °F 78% 29.93 in 10.0 mi ESE 5.8 mph - N/A   Clear